Saipan, MP

10:43 AM ChST on May 26, 2017 (GMT +1000)
Saipan International

Weather History for PGSN - December, 2012

Change the Weather History Date:

Tuesday, December 4, 2012

  Actual Average Record
Temperature  
Mean Temperature 82 °F -  
Max Temperature 87 °F 84 °F 88 °F (2014)
Min Temperature 77 °F 76 °F 75 °F (2004)
Cooling Degree Days 17    
Growing Degree Days 32 (Base 50)    
Moisture  
Dew Point 73 °F    
Average Humidity 76    
Maximum Humidity 87    
Minimum Humidity 63    
Precipitation  
Precipitation 0.00 in - - ()
Sea Level Pressure  
Sea Level Pressure 29.94 in    
Wind  
Wind Speed 7 mph (NE)    
Max Wind Speed 14 mph    
Max Gust Speed -    
Visibility 10 miles    
Events      
Averages and records for this station are not official NWS values.
T = Trace of Precipitation, MM = Missing Value Source: NWS Daily Summary

Daily Weather History Graph

Daily Weather History Graph

Search for Another Location

Airport or City:

Trip Planner

Search our weather history database for the weather conditions in past years. The results will help you decide how hot, cold, wet, or windy it might be!

Date:

Astronomy

Dec. 04, 2012 Rise Set
Actual Time 6:28 AM ChST 5:45 PM ChST
Civil Twilight 6:05 AM ChST 6:08 PM ChST
Nautical Twilight 5:39 AM ChST 6:35 PM ChST
Astronomical Twilight 5:12 AM ChST 7:01 PM ChST
Moon 10:24 PM ChST (12/4) 10:27 AM ChST (12/4)
Length of Visible Light 12h 03m
Length of Day
11h 16m
Waning Gibbous, 75% of the Moon is Illuminated
Dec 4
Waning Gibbous
Dec 7
Last Quarter
Dec 13
New
Dec 20
First Quarter
Dec 28
Full

Hourly Weather History & Observations

Time (ChST) Temp. Heat Index Dew Point Humidity Pressure Visibility Wind Dir Wind Speed Gust Speed Precip Events Conditions
12:54 AM 80.1 °F 84.2 °F 73.0 °F 79% 29.97 in 10.0 mi ENE 6.9 mph - N/A   Scattered Clouds
1:15 AM 80.6 °F 85.4 °F 73.4 °F 79% 29.90 in 10.0 mi ENE 6.9 mph - N/A   Mostly Cloudy
1:23 AM 80.6 °F 85.4 °F 73.4 °F 79% 29.90 in 10.0 mi ENE 6.9 mph - N/A   Scattered Clouds
1:54 AM 80.1 °F 84.2 °F 73.0 °F 79% 29.96 in 10.0 mi ENE 8.1 mph - N/A   Mostly Cloudy
2:54 AM 79.0 °F - 72.0 °F 79% 29.95 in 10.0 mi North 4.6 mph - N/A   Scattered Clouds
3:54 AM 79.0 °F - 73.0 °F 82% 29.94 in 10.0 mi North 5.8 mph - N/A   Partly Cloudy
4:54 AM 79.0 °F - 72.0 °F 79% 29.94 in 10.0 mi North 3.5 mph - N/A   Partly Cloudy
5:54 AM 79.0 °F - 72.0 °F 79% 29.96 in 10.0 mi North 5.8 mph - N/A   Partly Cloudy
6:54 AM 77.0 °F - 72.0 °F 84% 29.96 in 10.0 mi NNE 5.8 mph - N/A   Partly Cloudy
7:54 AM 80.1 °F 84.2 °F 73.0 °F 79% 29.98 in 10.0 mi NE 8.1 mph - N/A   Scattered Clouds
8:54 AM 80.1 °F 84.5 °F 73.9 °F 81% 29.99 in 10.0 mi NE 11.5 mph - N/A   Scattered Clouds
9:54 AM 84.9 °F 91.4 °F 73.0 °F 67% 29.98 in 10.0 mi NE 10.4 mph - N/A   Scattered Clouds
10:54 AM 86.0 °F 92.2 °F 72.0 °F 63% 29.97 in 10.0 mi NNE 11.5 mph - N/A   Scattered Clouds
11:54 AM 86.0 °F 93.0 °F 73.0 °F 65% 29.94 in 10.0 mi ENE 12.7 mph - N/A   Scattered Clouds
12:54 PM 87.1 °F 94.5 °F 73.0 °F 63% 29.91 in 10.0 mi ENE 13.8 mph - N/A   Scattered Clouds
1:54 PM 87.1 °F 94.5 °F 73.0 °F 63% 29.90 in 10.0 mi ENE 11.5 mph - N/A   Scattered Clouds
2:54 PM 86.0 °F 93.8 °F 73.9 °F 67% 29.89 in 10.0 mi ENE 10.4 mph - N/A   Scattered Clouds
3:54 PM 84.9 °F 91.4 °F 73.0 °F 67% 29.90 in 10.0 mi NE 10.4 mph - N/A   Scattered Clouds
4:54 PM 84.9 °F 92.1 °F 73.9 °F 69% 29.91 in 10.0 mi NE 9.2 mph - N/A   Partly Cloudy
5:54 PM 82.9 °F 89.4 °F 73.9 °F 74% 29.92 in 10.0 mi NE 6.9 mph - N/A   Partly Cloudy
6:54 PM 81.0 °F 86.2 °F 73.9 °F 79% 29.93 in 10.0 mi NNE 6.9 mph - N/A   Scattered Clouds
7:54 PM 80.1 °F 84.5 °F 73.9 °F 81% 29.95 in 10.0 mi NNE 6.9 mph - N/A   Scattered Clouds
8:54 PM 79.0 °F - 73.9 °F 84% 29.96 in 10.0 mi NNE 5.8 mph - N/A   Partly Cloudy
9:54 PM 79.0 °F - 73.9 °F 84% 29.97 in 10.0 mi North 3.5 mph - N/A   Partly Cloudy
10:54 PM 79.0 °F - 73.9 °F 84% 29.98 in 10.0 mi NNW 4.6 mph - N/A   Partly Cloudy
11:54 PM 78.1 °F - 73.9 °F 87% 29.97 in 10.0 mi North 3.5 mph - N/A   Scattered Clouds